[[{"header":{"parameterUnit":"m.s-1","parameterCategory":2,"la1":30.2992,"la2":30.254,"lo1":-89.0895,"lo2":-89.0443,"dy":0.0025,"dx":0.0025,"nx":19,"ny":19,"refTime":"2026-05-14T09:00:00:Z","depth":"0","parameterNumber":2,"parameterNumberName":"U-component_of_CURRENTS"},"data":[0,0,0,-0.3161,-0.3163,-0.3224,-0.3225,-0.3166,-0.3165,0,0,0,0,0,0,0,0,0,0,0,-0.3129,-0.3129,-0.3161,-0.3163,-0.3224,-0.3225,-0.3166,-0.3165,0,0,0,0,0,0,0,0,0,0,0,-0.3129,-0.3129,-0.313,-0.3163,-0.3224,-0.3225,-0.3167,-0.3152,0,0,0,0,0,0,0,0,0,0,-0.3109,-0.3094,-0.3129,-0.313,-0.3164,-0.3224,-0.3225,-0.3153,-0.3153,-0.3102,0,-0.3114,0,-0.3143,-0.3159,-0.3159,0,0,0,-0.3155,-0.3094,-0.3121,-0.313,-0.3164,-0.3224,-0.3194,-0.3154,-0.3154,-0.3101,-0.3113,-0.3112,-0.3142,-0.3159,-0.3158,-0.2911,-0.2909,0,0,-0.3152,-0.3126,-0.3122,-0.3121,-0.318,-0.3193,-0.3196,-0.3156,-0.3145,-0.3113,-0.3112,-0.3141,-0.3158,-0.3157,-0.2913,-0.291,0,0,0,-0.3147,-0.3123,-0.3154,-0.3122,-0.3147,-0.3195,-0.3199,-0.3147,-0.316,-0.3112,-0.314,-0.3157,-0.3156,-0.2915,-0.2912,-0.285,0,0,0,-0.3145,-0.3122,-0.3152,-0.3136,-0.3149,-0.3165,-0.319,-0.3163,-0.316,-0.3141,-0.3157,-0.3155,-0.2917,-0.2913,-0.2856,-0.2789,0,0,0,-0.3126,-0.312,-0.313,-0.3135,-0.3168,-0.3168,-0.3179,-0.3164,-0.3177,-0.3159,-0.3155,-0.2919,-0.2914,-0.2862,-0.28,-0.2726,0,0,0,-0.3094,-0.3077,-0.3129,-0.3109,-0.3168,-0.3139,-0.318,-0.317,-0.3152,-0.3157,-0.2917,-0.2912,-0.2864,-0.2806,-0.2732,-0.2543,-0.2499,0,0,-0.305,-0.3071,-0.3058,-0.3106,-0.3062,-0.313,-0.3032,-0.305,-0.3047,-0.2925,-0.2921,-0.2854,-0.28,-0.2727,-0.2267,-0.2231,0,0,0,-0.3028,-0.2982,-0.2985,-0.2977,-0.3008,-0.2951,-0.2982,-0.2952,-0.2863,-0.3017,-0.2773,-0.2739,-0.2697,-0.2593,-0.2563,-0.2494,-0.289,-0.289,-0.2891,-0.2792,-0.2853,-0.2766,-0.2793,-0.2793,-0.2816,-0.2764,-0.2703,-0.2753,-0.2676,-0.2631,-0.2446,-0.2329,-0.2306,-0.2236,-0.2585,-0.2585,-0.2584,-0.2584,-0.2538,-0.2458,-0.2527,-0.2471,-0.2513,-0.2456,-0.2456,-0.2502,-0.2396,-0.2457,-0.2422,-0.2458,-0.2269,-0.2207,-0.2579,-0.258,-0.2581,-0.2581,-0.2581,-0.2255,-0.2247,-0.2236,-0.22,-0.2162,-0.2231,-0.2184,-0.2244,-0.2266,-0.2248,-0.2142,-0.2141,-0.2139,-0.2245,-0.2244,-0.2243,-0.2243,-0.2242,-0.2242,-0.1995,-0.1998,-0.1942,-0.193,-0.1933,-0.1952,-0.203,-0.2022,-0.198,-0.1995,-0.1994,-0.2006,-0.2342,-0.2416,-0.2231,-0.2233,-0.2235,-0.2236,-0.2236,-0.1714,-0.1797,-0.1689,-0.1683,-0.1706,-0.1679,-0.1778,-0.1708,-0.1694,-0.1611,-0.1603,-0.1864,-0.186,-0.1882,-0.1941,-0.1646,-0.1646,-0.1646,-0.1646,-0.1576,-0.1592,-0.1516,-0.1495,-0.1501,-0.1556,-0.1408,-0.1363,-0.1312,-0.1239,-0.1325,-0.1361,-0.1388,-0.1364,-0.1397,-0.1449,-0.1035,-0.1034,-0.1034,-0.1444,-0.1449,-0.1363,-0.139,-0.1423,-0.1416,-0.1218,-0.0996,-0.0918,-0.1013,-0.1262,-0.1287,-0.1358,-0.1407,-0.1393,-0.1445,-0.1541,0,0]},{"header":{"parameterUnit":"m.s-1","parameterCategory":2,"la1":30.2992,"la2":30.254,"lo1":-89.0895,"lo2":-89.0443,"dy":0.0025,"dx":0.0025,"nx":19,"ny":19,"refTime":"2026-05-14T09:00:00:Z","depth":"0","parameterNumber":3,"parameterNumberName":"V-component_of_CURRENTS"},"data":[0,0,0,-0.0375,-0.0372,-0.0198,-0.0197,0.0092,0.0095,0,0,0,0,0,0,0,0,0,0,0,-0.0439,-0.0438,-0.0375,-0.0372,-0.0199,-0.0197,0.0092,0.0095,0,0,0,0,0,0,0,0,0,0,0,-0.0439,-0.0438,-0.0438,-0.0371,-0.0199,-0.0197,0.0091,-0.0049,0,0,0,0,0,0,0,0,0,0,-0.0222,-0.031,-0.0438,-0.0438,-0.0371,-0.0199,-0.0197,-0.0056,-0.004,0.0023,0,0.0025,0,0.0057,0.0113,0.0114,0,0,0,-0.034,-0.0324,-0.0275,-0.0438,-0.0369,-0.0199,-0.0268,-0.0047,-0.0029,0.0044,0.003,0.004,0.0062,0.0114,0.0116,0.0396,0.0397,0,0,-0.0349,-0.0397,-0.0288,-0.0265,-0.0354,-0.0273,-0.0263,-0.0037,-0.003,0.0031,0.0047,0.0066,0.0116,0.0118,0.0395,0.0396,0,0,0,-0.0398,-0.0404,-0.0361,-0.0277,-0.0256,-0.0269,-0.0257,-0.004,-0.0026,0.005,0.007,0.0118,0.0121,0.0394,0.0395,0.0367,0,0,0,-0.0403,-0.0435,-0.0366,-0.0391,-0.0262,-0.0157,-0.0265,-0.0042,-0.0015,0.0068,0.0118,0.0124,0.0393,0.0395,0.0365,0.0317,0,0,0,-0.0441,-0.0438,-0.0428,-0.0395,-0.0333,-0.0161,-0.0132,-0.0035,-0.0004,0.0114,0.0124,0.0392,0.0394,0.0364,0.0316,0.0311,0,0,0,-0.0481,-0.0509,-0.043,-0.0445,-0.0336,-0.0246,-0.0133,-0.0061,0.0023,0.0119,0.0393,0.0395,0.0363,0.0316,0.031,0.0315,0.0316,0,0,-0.0545,-0.0518,-0.0525,-0.0451,-0.0411,-0.0266,-0.0139,0.0004,0.0101,0.0326,0.0333,0.0366,0.0316,0.0311,0.046,0.0456,0,0,0,-0.0564,-0.0562,-0.0538,-0.0491,-0.0399,-0.023,-0.0085,0.0049,0.026,0.0161,0.0426,0.0396,0.0392,0.0397,0.0396,0.0538,0.0407,0.0407,0.0406,-0.0682,-0.0623,-0.0605,-0.0502,-0.042,-0.0191,-0.0025,0.0204,0.0266,0.0373,0.0418,0.0452,0.0463,0.046,0.0609,0.049,0.049,0.049,0.049,-0.0735,-0.0703,-0.0607,-0.0569,-0.0387,-0.0258,0.0089,0.0202,0.0444,0.0489,0.0487,0.0424,0.0456,0.0616,0.0489,0.049,0.049,0.049,0.049,-0.0771,-0.0744,-0.072,-0.0632,-0.0493,-0.0278,-0.0067,0.0168,0.0375,0.043,0.0414,0.0415,0.0511,0.0404,0.0404,0.0403,0.0403,0.0403,0.0403,-0.081,-0.0777,-0.077,-0.0683,-0.0637,-0.049,-0.0174,-0.0018,0.0211,0.0372,0.0373,0.0565,0.0425,0.0378,0.04,0.04,0.0401,0.0401,0.0401,-0.0825,-0.084,-0.0824,-0.0804,-0.0696,-0.0511,-0.0313,0.0001,0.0127,0.0238,0.0543,0.0375,0.0375,0.0378,0.0332,0.034,0.034,0.034,0.034,-0.0854,-0.0853,-0.0845,-0.0818,-0.0731,-0.0501,-0.0131,0.0168,0.0449,0.0577,0.0601,0.0659,0.0655,0.0674,0.0671,0.0633,0.0718,0.0719,0.072,-0.0859,-0.0856,-0.0853,-0.0829,-0.0734,-0.0434,0.0065,0.0576,0.076,0.0751,0.0801,0.0785,0.0888,0.0869,0.0914,0.0898,0.0839,0,0]}],[{"header":{"parameterUnit":"m.s-1","parameterCategory":2,"la1":30.2992,"la2":30.254,"lo1":-89.0895,"lo2":-89.0443,"dy":0.0025,"dx":0.0025,"nx":19,"ny":19,"refTime":"2026-05-14T09:00:00:Z","depth":"2","parameterNumber":2,"parameterNumberName":"U-component_of_CURRENTS"},"data":[0,0,0,-0.2619,-0.2622,-0.28,-0.2801,-0.2881,-0.2881,0,0,0,0,0,0,0,0,0,0,0,-0.2565,-0.2566,-0.2619,-0.2622,-0.28,-0.2801,-0.2881,-0.2881,0,0,0,0,0,0,0,0,0,0,0,-0.2564,-0.2565,-0.2567,-0.2623,-0.28,-0.2801,-0.2881,-0.2788,0,0,0,0,0,0,0,0,0,0,-0.2637,-0.2586,-0.2565,-0.2567,-0.2624,-0.2799,-0.2801,-0.2786,-0.2794,-0.2751,0,-0.2776,0,-0.2813,-0.288,-0.288,0,0,0,-0.2645,-0.258,-0.2635,-0.2567,-0.2625,-0.2799,-0.2726,-0.2792,-0.2801,-0.2761,-0.2778,-0.2782,-0.2814,-0.288,-0.288,-0.2737,-0.2735,0,0,-0.2635,-0.2589,-0.2629,-0.264,-0.2665,-0.272,-0.2731,-0.2799,-0.2797,-0.2778,-0.2784,-0.2816,-0.288,-0.288,-0.2738,-0.2737,0,0,0,-0.2592,-0.2581,-0.2639,-0.2636,-0.2671,-0.2725,-0.2738,-0.2795,-0.2816,-0.2786,-0.2817,-0.288,-0.288,-0.274,-0.2738,-0.2619,0,0,0,-0.2587,-0.2555,-0.2634,-0.2608,-0.267,-0.275,-0.2731,-0.2813,-0.2821,-0.2816,-0.288,-0.288,-0.2742,-0.2739,-0.2626,-0.2561,0,0,0,-0.2558,-0.2551,-0.2573,-0.2605,-0.2672,-0.2751,-0.2779,-0.2817,-0.2837,-0.288,-0.288,-0.2743,-0.2739,-0.2633,-0.2572,-0.2512,0,0,0,-0.2504,-0.2523,-0.2572,-0.2588,-0.2671,-0.2722,-0.278,-0.2839,-0.2875,-0.288,-0.2742,-0.2738,-0.2634,-0.2579,-0.2518,-0.2344,-0.2301,0,0,-0.2497,-0.2521,-0.2529,-0.2577,-0.26,-0.27,-0.2667,-0.2754,-0.2788,-0.2717,-0.2716,-0.2624,-0.2573,-0.2513,-0.213,-0.2094,0,0,0,-0.2505,-0.2482,-0.25,-0.2528,-0.2603,-0.2576,-0.2681,-0.2667,-0.2632,-0.2787,-0.2581,-0.2552,-0.2519,-0.2425,-0.2395,-0.272,-0.2721,-0.2721,-0.2722,-0.2345,-0.241,-0.2366,-0.2411,-0.2443,-0.2502,-0.2464,-0.2444,-0.2533,-0.247,-0.2424,-0.2252,-0.2146,-0.2123,-0.2396,-0.2396,-0.2395,-0.2395,-0.2395,-0.2179,-0.2121,-0.2182,-0.2163,-0.2202,-0.2189,-0.2188,-0.2236,-0.2162,-0.2247,-0.2223,-0.2265,-0.2083,-0.2384,-0.2386,-0.2388,-0.2389,-0.239,-0.239,-0.1971,-0.196,-0.1959,-0.1946,-0.1913,-0.1979,-0.1919,-0.1978,-0.2017,-0.1988,-0.1945,-0.1945,-0.221,-0.201,-0.201,-0.2009,-0.2008,-0.2008,-0.2008,-0.1768,-0.1773,-0.1727,-0.1721,-0.1721,-0.1731,-0.179,-0.1779,-0.1756,-0.1774,-0.1774,-0.2123,-0.2135,-0.2187,-0.1998,-0.2,-0.2001,-0.2002,-0.2003,-0.1544,-0.1607,-0.152,-0.1513,-0.1519,-0.1461,-0.1567,-0.1498,-0.1494,-0.1422,-0.1647,-0.1659,-0.1686,-0.1709,-0.1748,-0.1459,-0.1459,-0.1459,-0.1458,-0.1423,-0.1437,-0.136,-0.1331,-0.1316,-0.1335,-0.119,-0.116,-0.1207,-0.1203,-0.1215,-0.1256,-0.1282,-0.1293,-0.1326,-0.1362,-0.0971,-0.097,-0.097,-0.13,-0.1304,-0.1216,-0.1227,-0.1227,-0.1174,-0.0975,-0.0797,-0.0778,-0.0959,-0.1218,-0.1409,-0.1504,-0.1531,-0.1587,-0.1624,-0.1698,0,0]},{"header":{"parameterUnit":"m.s-1","parameterCategory":2,"la1":30.2992,"la2":30.254,"lo1":-89.0895,"lo2":-89.0443,"dy":0.0025,"dx":0.0025,"nx":19,"ny":19,"refTime":"2026-05-14T09:00:00:Z","depth":"2","parameterNumber":3,"parameterNumberName":"V-component_of_CURRENTS"},"data":[0,0,0,-0.0528,-0.0526,-0.0366,-0.0365,-0.0089,-0.0087,0,0,0,0,0,0,0,0,0,0,0,-0.0581,-0.058,-0.0528,-0.0526,-0.0366,-0.0365,-0.009,-0.0087,0,0,0,0,0,0,0,0,0,0,0,-0.0581,-0.058,-0.058,-0.0525,-0.0366,-0.0365,-0.009,-0.0219,0,0,0,0,0,0,0,0,0,0,-0.038,-0.0456,-0.058,-0.058,-0.0525,-0.0367,-0.0365,-0.0226,-0.0211,-0.0153,0,-0.0152,0,-0.0129,-0.0071,-0.007,0,0,0,-0.0488,-0.0469,-0.0429,-0.058,-0.0524,-0.0367,-0.0427,-0.0218,-0.0201,-0.0134,-0.0148,-0.0138,-0.0125,-0.0069,-0.0068,0.0228,0.0229,0,0,-0.0497,-0.0536,-0.0441,-0.042,-0.0511,-0.0433,-0.0423,-0.0208,-0.02,-0.0147,-0.0132,-0.012,-0.0067,-0.0065,0.0227,0.0229,0,0,0,-0.0548,-0.0543,-0.0509,-0.0431,-0.0416,-0.0429,-0.0418,-0.0208,-0.0199,-0.0129,-0.0117,-0.0066,-0.0063,0.0225,0.0227,0.0123,0,0,0,-0.0551,-0.0575,-0.0514,-0.0533,-0.0422,-0.0322,-0.0423,-0.0214,-0.0189,-0.0118,-0.0066,-0.006,0.0224,0.0226,0.0122,0.0082,0,0,0,-0.0583,-0.0578,-0.057,-0.0536,-0.0485,-0.0326,-0.0302,-0.0208,-0.0183,-0.0069,-0.006,0.0223,0.0226,0.0122,0.0082,0.0092,0,0,0,-0.0612,-0.0627,-0.0571,-0.0575,-0.0487,-0.0405,-0.0303,-0.0228,-0.0145,-0.0065,0.0224,0.0227,0.0122,0.0083,0.0092,0.0111,0.0112,0,0,-0.0652,-0.0633,-0.0634,-0.0581,-0.0546,-0.0422,-0.0315,-0.0175,-0.0056,0.0161,0.0168,0.0123,0.0082,0.0092,0.0302,0.0296,0,0,0,-0.0659,-0.0658,-0.0639,-0.0601,-0.0524,-0.0399,-0.0257,-0.0137,0.0068,0.0004,0.022,0.02,0.0207,0.0224,0.0221,0.0243,0.0242,0.0242,0.0242,-0.0736,-0.0694,-0.0678,-0.0605,-0.054,-0.0363,-0.0243,-0.0029,0.0062,0.0166,0.0186,0.0222,0.0242,0.024,0.0268,0.0268,0.0267,0.0267,0.0267,-0.0769,-0.0749,-0.0682,-0.0653,-0.0526,-0.0421,-0.016,-0.0065,0.0156,0.0233,0.0244,0.0202,0.0229,0.0261,0.0262,0.0263,0.0263,0.0264,0.0264,-0.0798,-0.0782,-0.0762,-0.0701,-0.0604,-0.0442,-0.0293,-0.011,0.0072,0.0097,0.0172,0.0175,0.0112,0.0115,0.0115,0.0115,0.0115,0.0115,0.0115,-0.083,-0.0807,-0.0805,-0.0742,-0.071,-0.0597,-0.0357,-0.0238,-0.0033,0.0098,0.0099,0.0172,0.0177,0.011,0.0113,0.0113,0.0113,0.0113,0.0114,-0.0851,-0.0862,-0.0855,-0.0842,-0.0764,-0.0675,-0.0481,-0.0219,-0.0086,0.001,0.0116,0.0117,0.0158,0.0164,0.0102,0.0102,0.0102,0.0102,0.0102,-0.088,-0.088,-0.0883,-0.0871,-0.0816,-0.0694,-0.0508,-0.0259,-0.0008,0.0086,0.0087,0.0108,0.0109,0.015,0.0156,0.0095,0.0093,0.0093,0.0093,-0.089,-0.0889,-0.0898,-0.089,-0.0838,-0.0709,-0.0545,-0.0338,-0.0073,0.009,0.0059,0.0107,0.0141,0.0142,0.0212,0.0218,0.0123,0,0]}],[{"header":{"parameterUnit":"m.s-1","parameterCategory":2,"la1":30.2992,"la2":30.254,"lo1":-89.0895,"lo2":-89.0443,"dy":0.0025,"dx":0.0025,"nx":19,"ny":19,"refTime":"2026-05-14T09:00:00:Z","depth":"4","parameterNumber":2,"parameterNumberName":"U-component_of_CURRENTS"},"data":[0,0,0,-0.1352,-0.1354,-0.1445,-0.1445,-0.1449,-0.1448,0,0,0,0,0,0,0,0,0,0,0,-0.1331,-0.1332,-0.1352,-0.1354,-0.1445,-0.1445,-0.1449,-0.1448,0,0,0,0,0,0,0,0,0,0,0,-0.133,-0.1331,-0.1332,-0.1354,-0.1445,-0.1445,-0.1449,-0.1409,0,0,0,0,0,0,0,0,0,0,-0.1336,-0.1334,-0.1331,-0.1332,-0.1355,-0.1445,-0.1445,-0.1409,-0.1412,-0.1374,0,-0.1399,0,-0.1415,-0.1446,-0.1445,0,0,0,-0.1358,-0.1332,-0.135,-0.1333,-0.1356,-0.1444,-0.1405,-0.1411,-0.1414,-0.1377,-0.14,-0.14,-0.1415,-0.1445,-0.1445,-0.1382,-0.1381,0,0,-0.1353,-0.1348,-0.1348,-0.1353,-0.1391,-0.1402,-0.1408,-0.1414,-0.1423,-0.14,-0.1401,-0.1415,-0.1445,-0.1445,-0.1382,-0.1382,0,0,0,-0.1336,-0.1344,-0.1365,-0.1352,-0.1373,-0.1405,-0.1411,-0.1423,-0.1429,-0.1401,-0.1415,-0.1445,-0.1444,-0.1383,-0.1382,-0.1305,0,0,0,-0.1333,-0.1334,-0.1363,-0.1361,-0.1374,-0.1415,-0.142,-0.143,-0.1431,-0.1415,-0.1445,-0.1444,-0.1383,-0.1382,-0.1308,-0.1338,0,0,0,-0.1324,-0.1333,-0.1346,-0.136,-0.1397,-0.1416,-0.1424,-0.1431,-0.1438,-0.1445,-0.1444,-0.1383,-0.1382,-0.1311,-0.1341,-0.1369,0,0,0,-0.1311,-0.1329,-0.1347,-0.1374,-0.1396,-0.1432,-0.1424,-0.1478,-0.1495,-0.1445,-0.1383,-0.1382,-0.1312,-0.1343,-0.137,-0.1218,0,0,0,-0.1319,-0.1331,-0.1345,-0.1362,-0.1376,-0.1419,-0.1386,-0.1423,-0.1453,-0.1374,-0.1374,-0.1307,-0.1341,-0.1369,-0.1164,0,0,0,0,-0.1337,-0.1351,-0.1363,-0.1377,-0.14,-0.1378,-0.1405,-0.1382,-0.1356,-0.1456,-0.131,-0.1336,-0.1355,-0.1268,-0.1377,-0.1378,-0.1378,-0.1378,-0.1378,-0.1376,-0.1363,-0.1369,-0.1353,-0.1359,-0.1346,-0.1329,-0.1295,-0.1308,-0.1284,-0.1271,-0.1248,-0.1146,-0.1238,-0.1238,-0.1237,-0.1237,-0.1237,-0.1237,-0.1377,-0.1339,-0.1347,-0.1348,-0.1306,-0.1283,-0.1209,-0.1208,-0.1172,-0.1179,-0.12,-0.1189,-0.1229,-0.1231,-0.1232,-0.1233,-0.1233,-0.1234,-0.1234,-0.1346,-0.1303,-0.1346,-0.1315,-0.1296,-0.1259,-0.1209,-0.1191,-0.1171,-0.1174,-0.1142,-0.1238,-0.125,-0.1201,-0.1201,-0.1201,-0.1201,-0.1201,-0.1201,-0.125,-0.127,-0.1268,-0.128,-0.1278,-0.1267,-0.1244,-0.1213,-0.1206,-0.1099,-0.1202,-0.1238,-0.1239,-0.1251,-0.1205,-0.1204,-0.1204,-0.1203,-0.1203,-0.1103,-0.1155,-0.1134,-0.1152,-0.1159,-0.1149,-0.1205,-0.1127,-0.1102,-0.1042,-0.105,-0.1056,-0.1098,-0.1104,-0.1113,-0.1024,-0.1022,-0.102,0,-0.1004,-0.1026,-0.0996,-0.0988,-0.096,-0.1037,-0.0949,-0.0955,-0.0952,-0.0913,-0.1089,-0.1099,-0.1101,-0.1151,-0.1153,-0.1163,0,0,0,-0.0905,-0.0917,-0.0858,-0.0878,-0.0846,-0.0833,-0.0906,-0.085,-0.0982,-0.09,-0.0968,-0.0982,-0.1119,-0.1214,-0.1298,-0.1299,-0.1324,0,0]},{"header":{"parameterUnit":"m.s-1","parameterCategory":2,"la1":30.2992,"la2":30.254,"lo1":-89.0895,"lo2":-89.0443,"dy":0.0025,"dx":0.0025,"nx":19,"ny":19,"refTime":"2026-05-14T09:00:00:Z","depth":"4","parameterNumber":3,"parameterNumberName":"V-component_of_CURRENTS"},"data":[0,0,0,-0.0489,-0.0489,-0.0494,-0.0495,-0.0574,-0.0575,0,0,0,0,0,0,0,0,0,0,0,-0.0498,-0.0498,-0.0489,-0.0489,-0.0494,-0.0495,-0.0574,-0.0575,0,0,0,0,0,0,0,0,0,0,0,-0.0498,-0.0498,-0.0498,-0.0488,-0.0494,-0.0495,-0.0574,-0.0554,0,0,0,0,0,0,0,0,0,0,-0.054,-0.0534,-0.0498,-0.0498,-0.0488,-0.0494,-0.0495,-0.0552,-0.0555,-0.0588,0,-0.0589,0,-0.0576,-0.0581,-0.0581,0,0,0,-0.05,-0.0531,-0.053,-0.0498,-0.0488,-0.0494,-0.0495,-0.0554,-0.0557,-0.0592,-0.059,-0.0592,-0.0577,-0.0581,-0.0582,-0.0687,-0.0687,0,0,-0.0499,-0.0504,-0.0528,-0.0532,-0.0491,-0.0495,-0.0495,-0.0555,-0.0562,-0.059,-0.0593,-0.0578,-0.0582,-0.0582,-0.0687,-0.0687,0,0,0,-0.0491,-0.0504,-0.0501,-0.053,-0.0521,-0.0495,-0.0495,-0.056,-0.0558,-0.0594,-0.0579,-0.0582,-0.0583,-0.0686,-0.0687,-0.0667,0,0,0,-0.0491,-0.0498,-0.05,-0.0504,-0.0519,-0.0529,-0.0499,-0.0554,-0.056,-0.0579,-0.0582,-0.0584,-0.0685,-0.0686,-0.0666,-0.0628,0,0,0,-0.0498,-0.0499,-0.0499,-0.0504,-0.05,-0.0528,-0.0529,-0.0555,-0.0551,-0.0581,-0.0585,-0.0685,-0.0686,-0.0666,-0.0628,-0.0561,0,0,0,-0.0504,-0.0512,-0.0499,-0.0505,-0.05,-0.0509,-0.0528,-0.054,-0.0563,-0.0583,-0.0686,-0.0687,-0.0665,-0.0629,-0.0562,-0.0549,0,0,0,-0.0517,-0.0514,-0.0516,-0.0504,-0.0514,-0.0509,-0.0533,-0.0565,-0.0598,-0.0672,-0.0674,-0.0666,-0.0628,-0.0561,-0.062,0,0,0,0,-0.0522,-0.053,-0.053,-0.053,-0.0527,-0.0533,-0.0555,-0.0582,-0.0642,-0.0615,-0.0696,-0.0673,-0.063,-0.063,-0.0692,-0.0692,-0.0692,-0.0692,-0.0692,-0.0566,-0.0553,-0.0562,-0.0552,-0.0555,-0.0559,-0.0574,-0.0622,-0.0652,-0.0683,-0.068,-0.0645,-0.0651,-0.0723,-0.0723,-0.0723,-0.0723,-0.0723,-0.0723,-0.0595,-0.0594,-0.0584,-0.0591,-0.0583,-0.06,-0.0618,-0.0632,-0.0648,-0.0697,-0.0657,-0.0641,-0.0721,-0.0722,-0.0722,-0.0722,-0.0722,-0.0722,-0.0722,-0.0625,-0.0617,-0.0625,-0.0629,-0.0626,-0.0616,-0.0597,-0.0604,-0.0617,-0.0594,-0.0553,-0.0607,-0.0578,-0.0558,-0.0557,-0.0557,-0.0557,-0.0556,-0.0556,-0.0642,-0.0645,-0.0666,-0.0663,-0.0664,-0.0632,-0.0574,-0.0538,-0.0509,-0.0506,-0.0559,-0.0588,-0.0593,-0.0568,-0.0549,-0.0551,-0.0551,-0.0552,-0.0552,-0.0654,-0.0675,-0.0697,-0.0711,-0.07,-0.0661,-0.0589,-0.0453,-0.0396,-0.0345,-0.0455,-0.0461,-0.0447,-0.0455,-0.0424,-0.0361,-0.0361,-0.0361,0,-0.067,-0.0678,-0.072,-0.0744,-0.0733,-0.0679,-0.057,-0.0476,-0.0406,-0.043,-0.0428,-0.0561,-0.0564,-0.0559,-0.0565,-0.0536,0,0,0,-0.0676,-0.0686,-0.0721,-0.0755,-0.0751,-0.0624,-0.0535,-0.0486,-0.0434,-0.0315,-0.0352,-0.0355,-0.0474,-0.0529,-0.0521,-0.0528,-0.0486,0,0]}]]